Time,TemperatureF,DewpointF,PressureIn,WindDirection,WindDirectionDegrees,WindSpeedMPH,WindSpeedGustMPH,Humidity,HourlyPrecipIn,Conditions,Clouds,dailyrainin,SoftwareType,DateUTC
2013-04-04 00:00:00,50.5,24.4,30.19,NNE,22,0.0,0.0,36,0.00,,,0.00,WUHU21623XXSP,2013-04-04 04:00:00,
2013-04-04 00:05:00,50.5,25.0,30.19,East,90,0.0,0.0,37,0.00,,,0.00,WUHU21623XXSP,2013-04-04 04:05:00,
2013-04-04 00:10:00,50.4,24.2,30.19,NNE,22,0.0,0.0,36,0.00,,,0.00,WUHU21623XXSP,2013-04-04 04:10:00,
2013-04-04 00:16:00,50.4,24.9,30.18,NNE,22,0.0,2.4,37,0.00,,,0.00,WUHU21623XXSP,2013-04-04 04:16:00,
2013-04-04 00:22:00,50.4,24.2,30.17,NNE,22,1.4,2.4,36,0.00,,,0.00,WUHU21623XXSP,2013-04-04 04:22:00,
2013-04-04 00:27:00,50.4,24.9,30.18,NNE,22,0.0,1.7,37,0.00,,,0.00,WUHU21623XXSP,2013-04-04 04:27:00,
2013-04-04 00:33:00,50.2,24.7,30.18,NNE,22,0.0,0.0,37,0.00,,,0.00,WUHU21623XXSP,2013-04-04 04:33:00,
2013-04-04 00:38:00,50.4,24.9,30.18,NNE,22,0.0,3.0,37,0.00,,,0.00,WUHU21623XXSP,2013-04-04 04:38:00,
2013-04-04 00:43:00,50.5,24.4,30.18,NNE,22,0.0,3.0,36,0.00,,,0.00,WUHU21623XXSP,2013-04-04 04:43:00,
2013-04-04 00:49:00,50.5,25.0,30.18,NNE,22,0.0,1.7,37,0.00,,,0.00,WUHU21623XXSP,2013-04-04 04:49:00,
2013-04-04 00:54:00,50.4,24.9,30.18,NNE,22,0.0,0.0,37,0.00,,,0.00,WUHU21623XXSP,2013-04-04 04:54:00,
2013-04-04 01:00:00,50.4,24.9,30.18,East,90,0.0,0.0,37,0.00,,,0.00,WUHU21623XXSP,2013-04-04 05:00:00,
2013-04-04 01:05:00,50.4,24.9,30.18,East,90,0.0,0.0,37,0.00,,,0.00,WUHU21623XXSP,2013-04-04 05:05:00,
2013-04-04 01:15:00,50.2,25.4,30.18,NNE,22,0.0,0.0,38,0.00,,,0.00,WUHU21623XXSP,2013-04-04 05:15:00,
2013-04-04 01:20:00,50.2,24.7,30.18,East,90,1.4,1.7,37,0.00,,,0.00,WUHU21623XXSP,2013-04-04 05:20:00,
2013-04-04 01:26:00,50.2,24.7,30.18,NNE,22,0.0,1.7,37,0.00,,,0.00,WUHU21623XXSP,2013-04-04 05:26:00,
2013-04-04 01:31:00,50.2,24.7,30.17,NNE,22,0.0,1.7,37,0.00,,,0.00,WUHU21623XXSP,2013-04-04 05:31:00,
2013-04-04 01:37:00,50.0,24.5,30.18,NNE,22,0.0,0.0,37,0.00,,,0.00,WUHU21623XXSP,2013-04-04 05:37:00,
2013-04-04 01:43:00,50.2,24.7,30.18,NNE,22,0.0,2.4,37,0.00,,,0.00,WUHU21623XXSP,2013-04-04 05:43:00,
2013-04-04 01:48:00,49.8,24.4,30.18,NNE,22,0.0,2.4,37,0.00,,,0.00,WUHU21623XXSP,2013-04-04 05:48:00,
2013-04-04 01:54:00,49.8,24.4,30.18,ESE,112,0.0,1.7,37,0.00,,,0.00,WUHU21623XXSP,2013-04-04 05:54:00,
2013-04-04 01:59:00,49.8,24.4,30.18,East,90,0.0,0.0,37,0.00,,,0.00,WUHU21623XXSP,2013-04-04 05:59:00,
2013-04-04 02:05:00,49.8,24.4,30.18,East,90,0.0,0.0,37,0.00,,,0.00,WUHU21623XXSP,2013-04-04 06:05:00,
2013-04-04 02:10:00,49.8,24.4,30.18,NNE,22,0.0,0.0,37,0.00,,,0.00,WUHU21623XXSP,2013-04-04 06:10:00,
2013-04-04 02:16:00,49.6,24.9,30.18,East,90,0.0,1.7,38,0.00,,,0.00,WUHU21623XXSP,2013-04-04 06:16:00,
2013-04-04 02:21:00,49.5,24.1,30.18,NNE,22,1.7,1.9,37,0.00,,,0.00,WUHU21623XXSP,2013-04-04 06:21:00,
2013-04-04 02:27:00,49.6,24.9,30.18,ESE,112,0.0,1.9,38,0.00,,,0.00,WUHU21623XXSP,2013-04-04 06:27:00,
2013-04-04 02:33:00,49.6,24.9,30.17,East,90,0.0,0.0,38,0.00,,,0.00,WUHU21623XXSP,2013-04-04 06:33:00,
2013-04-04 02:38:00,49.6,24.9,30.18,NNE,22,0.0,0.0,38,0.00,,,0.00,WUHU21623XXSP,2013-04-04 06:38:00,
2013-04-04 02:44:00,49.6,24.9,30.17,ESE,112,1.4,1.7,38,0.00,,,0.00,WUHU21623XXSP,2013-04-04 06:44:00,
2013-04-04 02:49:00,49.5,24.7,30.17,NNE,22,1.7,1.9,38,0.00,,,0.00,WUHU21623XXSP,2013-04-04 06:49:00,
2013-04-04 02:55:00,49.6,24.2,30.17,East,90,1.4,1.9,37,0.00,,,0.00,WUHU21623XXSP,2013-04-04 06:55:00,
2013-04-04 03:00:00,49.6,24.2,30.17,ESE,112,2.1,2.4,37,0.00,,,0.00,WUHU21623XXSP,2013-04-04 07:00:00,
2013-04-04 03:06:00,49.6,24.2,30.17,ESE,112,0.0,2.4,37,0.00,,,0.00,WUHU21623XXSP,2013-04-04 07:06:00,
2013-04-04 03:11:00,49.5,25.4,30.17,ESE,112,0.0,1.7,39,0.00,,,0.00,WUHU21623XXSP,2013-04-04 07:11:00,
2013-04-04 03:17:00,48.9,26.2,30.16,ESE,112,0.0,0.0,41,0.00,,,0.00,WUHU21623XXSP,2013-04-04 07:17:00,
2013-04-04 03:22:00,48.0,27.5,30.16,ESE,112,1.4,1.7,45,0.00,,,0.00,WUHU21623XXSP,2013-04-04 07:22:00,
2013-04-04 03:28:00,47.8,28.4,30.15,ESE,112,1.4,1.7,47,0.00,,,0.00,WUHU21623XXSP,2013-04-04 07:28:00,
2013-04-04 03:33:00,46.9,30.1,30.15,ESE,112,0.0,1.7,52,0.00,,,0.00,WUHU21623XXSP,2013-04-04 07:33:00,
2013-04-04 03:39:00,46.6,31.2,30.15,ESE,112,0.0,0.0,55,0.00,,,0.00,WUHU21623XXSP,2013-04-04 07:39:00,
2013-04-04 03:44:00,46.0,32.0,30.15,ESE,112,0.0,0.0,58,0.00,,,0.00,WUHU21623XXSP,2013-04-04 07:44:00,
2013-04-04 03:50:00,45.7,32.0,30.15,ESE,112,0.0,0.0,59,0.00,,,0.00,WUHU21623XXSP,2013-04-04 07:50:00,
2013-04-04 03:55:00,45.3,31.8,30.15,ESE,112,0.0,0.0,59,0.00,,,0.00,WUHU21623XXSP,2013-04-04 07:55:00,
2013-04-04 04:00:00,45.0,32.0,30.14,ESE,112,0.0,0.0,60,0.00,,,0.00,WUHU21623XXSP,2013-04-04 08:00:00,
2013-04-04 04:06:00,44.8,32.6,30.14,ESE,112,0.0,0.0,62,0.00,,,0.00,WUHU21623XXSP,2013-04-04 08:06:00,
2013-04-04 04:12:00,44.4,33.0,30.14,ESE,112,0.0,0.0,64,0.00,,,0.00,WUHU21623XXSP,2013-04-04 08:12:00,
2013-04-04 04:17:00,44.4,33.0,30.14,ESE,112,0.0,0.0,64,0.00,,,0.00,WUHU21623XXSP,2013-04-04 08:17:00,
2013-04-04 04:23:00,44.4,33.7,30.14,ESE,112,0.0,0.0,66,0.00,,,0.00,WUHU21623XXSP,2013-04-04 08:23:00,
2013-04-04 04:28:00,44.4,33.4,30.13,ESE,112,0.0,0.0,65,0.00,,,0.00,WUHU21623XXSP,2013-04-04 08:28:00,
2013-04-04 04:33:00,44.4,34.1,30.14,ESE,112,0.0,0.0,67,0.00,,,0.00,WUHU21623XXSP,2013-04-04 08:33:00,
2013-04-04 04:39:00,44.4,34.5,30.14,ESE,112,0.0,0.0,68,0.00,,,0.00,WUHU21623XXSP,2013-04-04 08:39:00,
2013-04-04 04:45:00,44.2,35.1,30.14,ESE,112,0.0,0.0,70,0.00,,,0.00,WUHU21623XXSP,2013-04-04 08:45:00,
2013-04-04 04:50:00,44.2,34.7,30.14,ESE,112,0.0,0.0,69,0.00,,,0.00,WUHU21623XXSP,2013-04-04 08:50:00,
2013-04-04 04:55:00,44.2,34.3,30.13,ESE,112,0.0,0.0,68,0.00,,,0.00,WUHU21623XXSP,2013-04-04 08:55:00,
2013-04-04 05:00:00,44.2,35.1,30.13,East,90,0.0,0.0,70,0.00,,,0.00,WUHU21623XXSP,2013-04-04 09:00:00,
2013-04-04 05:05:00,44.2,35.1,30.13,ESE,112,0.0,0.0,70,0.00,,,0.00,WUHU21623XXSP,2013-04-04 09:05:00,
2013-04-04 05:10:00,44.1,34.9,30.13,ESE,112,0.0,0.0,70,0.00,,,0.00,WUHU21623XXSP,2013-04-04 09:10:00,
2013-04-04 05:15:00,43.9,34.0,30.13,East,90,0.0,0.0,68,0.00,,,0.00,WUHU21623XXSP,2013-04-04 09:15:00,
2013-04-04 05:20:00,43.7,34.2,30.13,ESE,112,0.0,0.0,69,0.00,,,0.00,WUHU21623XXSP,2013-04-04 09:20:00,
2013-04-04 05:25:00,43.5,34.1,30.13,ESE,112,0.0,0.0,69,0.00,,,0.00,WUHU21623XXSP,2013-04-04 09:25:00,
2013-04-04 05:30:00,43.5,34.1,30.13,ESE,112,0.0,0.0,69,0.00,,,0.00,WUHU21623XXSP,2013-04-04 09:30:00,
2013-04-04 05:36:00,43.3,34.3,30.13,ESE,112,0.0,0.0,70,0.00,,,0.00,WUHU21623XXSP,2013-04-04 09:36:00,
2013-04-04 05:41:00,43.2,33.7,30.13,ESE,112,0.0,0.0,69,0.00,,,0.00,WUHU21623XXSP,2013-04-04 09:41:00,
2013-04-04 05:46:00,43.2,35.1,30.13,ESE,112,0.0,0.0,73,0.00,,,0.00,WUHU21623XXSP,2013-04-04 09:46:00,
2013-04-04 05:51:00,43.0,35.3,30.13,East,90,0.0,0.0,74,0.00,,,0.00,WUHU21623XXSP,2013-04-04 09:51:00,
2013-04-04 05:56:00,43.0,35.3,30.12,East,90,0.0,0.0,74,0.00,,,0.00,WUHU21623XXSP,2013-04-04 09:56:00,
2013-04-04 06:01:00,43.0,35.6,30.12,East,90,0.0,0.0,75,0.00,,,0.00,WUHU21623XXSP,2013-04-04 10:01:00,
2013-04-04 06:06:00,43.0,35.9,30.12,ESE,112,0.0,0.0,76,0.00,,,0.00,WUHU21623XXSP,2013-04-04 10:06:00,
2013-04-04 06:12:00,42.6,35.6,30.12,ESE,112,0.0,0.0,76,0.00,,,0.00,WUHU21623XXSP,2013-04-04 10:12:00,
2013-04-04 06:17:00,42.6,35.9,30.12,ESE,112,0.0,0.0,77,0.00,,,0.00,WUHU21623XXSP,2013-04-04 10:17:00,
2013-04-04 06:22:00,42.4,35.7,30.12,South,180,0.0,0.0,77,0.00,,,0.00,WUHU21623XXSP,2013-04-04 10:22:00,
2013-04-04 06:27:00,42.1,35.7,30.12,East,90,0.0,0.0,78,0.00,,,0.00,WUHU21623XXSP,2013-04-04 10:27:00,
2013-04-04 06:32:00,41.9,36.4,30.11,ESE,112,0.0,1.0,81,0.02,,,0.02,WUHU21623XXSP,2013-04-04 10:32:00,
2013-04-04 06:37:00,41.2,35.7,30.11,East,90,0.0,1.7,81,0.02,,,0.02,WUHU21623XXSP,2013-04-04 10:37:00,
2013-04-04 06:42:00,41.0,35.2,30.11,East,90,0.0,1.7,80,0.02,,,0.02,WUHU21623XXSP,2013-04-04 10:42:00,
2013-04-04 06:47:00,40.8,35.1,30.11,NNE,22,0.0,0.0,80,0.02,,,0.02,WUHU21623XXSP,2013-04-04 10:47:00,
2013-04-04 06:52:00,40.8,35.1,30.11,East,90,0.0,0.0,80,0.02,,,0.02,WUHU21623XXSP,2013-04-04 10:52:00,
2013-04-04 06:57:00,40.8,35.4,30.11,East,90,0.0,0.0,81,0.04,,,0.04,WUHU21623XXSP,2013-04-04 10:57:00,
2013-04-04 07:02:00,40.6,35.2,30.11,East,90,0.0,0.0,81,0.04,,,0.04,WUHU21623XXSP,2013-04-04 11:02:00,
2013-04-04 07:07:00,40.6,35.5,30.11,East,90,0.0,0.0,82,0.04,,,0.04,WUHU21623XXSP,2013-04-04 11:07:00,
2013-04-04 07:12:00,40.6,35.5,30.11,East,90,0.0,0.0,82,0.04,,,0.04,WUHU21623XXSP,2013-04-04 11:12:00,
2013-04-04 07:17:00,40.5,35.7,30.11,East,90,0.0,0.0,83,0.04,,,0.04,WUHU21623XXSP,2013-04-04 11:17:00,
2013-04-04 07:22:00,40.3,35.5,30.11,NNE,22,0.0,0.0,83,0.04,,,0.04,WUHU21623XXSP,2013-04-04 11:22:00,
2013-04-04 07:27:00,40.3,35.5,30.11,NNE,22,0.0,0.0,83,0.04,,,0.04,WUHU21623XXSP,2013-04-04 11:27:00,
2013-04-04 07:32:00,40.3,35.5,30.11,NNE,22,0.0,0.0,83,0.02,,,0.04,WUHU21623XXSP,2013-04-04 11:32:00,
2013-04-04 07:37:00,40.1,35.6,30.11,ESE,112,0.0,0.0,84,0.02,,,0.04,WUHU21623XXSP,2013-04-04 11:37:00,
2013-04-04 07:42:00,40.1,35.3,30.12,ESE,112,0.0,0.0,83,0.02,,,0.04,WUHU21623XXSP,2013-04-04 11:42:00,
2013-04-04 07:47:00,39.9,35.4,30.12,ESE,112,0.0,0.0,84,0.02,,,0.04,WUHU21623XXSP,2013-04-04 11:47:00,
2013-04-04 07:52:00,40.1,35.6,30.12,South,180,0.0,0.0,84,0.02,,,0.04,WUHU21623XXSP,2013-04-04 11:52:00,
2013-04-04 07:57:00,40.1,35.6,30.12,South,180,0.0,0.0,84,0.02,,,0.06,WUHU21623XXSP,2013-04-04 11:57:00,
2013-04-04 08:03:00,40.1,35.6,30.12,NNE,22,0.0,0.0,84,0.02,,,0.06,WUHU21623XXSP,2013-04-04 12:03:00,
2013-04-04 08:08:00,40.3,36.1,30.12,NNE,22,0.0,0.0,85,0.02,,,0.06,WUHU21623XXSP,2013-04-04 12:08:00,
2013-04-04 08:13:00,40.3,36.1,30.12,NNE,22,0.0,0.0,85,0.02,,,0.06,WUHU21623XXSP,2013-04-04 12:13:00,
2013-04-04 08:18:00,40.3,36.1,30.13,SSW,202,0.0,0.0,85,0.02,,,0.06,WUHU21623XXSP,2013-04-04 12:18:00,
2013-04-04 08:23:00,40.3,36.1,30.13,SSW,202,0.0,0.0,85,0.02,,,0.06,WUHU21623XXSP,2013-04-04 12:23:00,
2013-04-04 08:28:00,40.1,35.9,30.13,SSW,202,0.0,0.0,85,0.02,,,0.06,WUHU21623XXSP,2013-04-04 12:28:00,
2013-04-04 08:33:00,40.1,35.9,30.13,South,180,0.0,0.0,85,0.04,,,0.09,WUHU21623XXSP,2013-04-04 12:33:00,
2013-04-04 08:38:00,39.9,35.7,30.13,NNE,22,0.0,0.0,85,0.08,,,0.12,WUHU21623XXSP,2013-04-04 12:38:00,
2013-04-04 08:43:00,39.9,35.7,30.13,ESE,112,0.0,0.0,85,0.08,,,0.12,WUHU21623XXSP,2013-04-04 12:43:00,
2013-04-04 08:48:00,39.7,35.6,30.13,ESE,112,0.0,0.0,85,0.12,,,0.16,WUHU21623XXSP,2013-04-04 12:48:00,
2013-04-04 08:53:00,39.7,35.6,30.13,SSW,202,1.4,1.7,85,0.12,,,0.16,WUHU21623XXSP,2013-04-04 12:53:00,
2013-04-04 08:59:00,39.6,35.7,30.14,West,270,0.0,1.9,86,0.12,,,0.18,WUHU21623XXSP,2013-04-04 12:59:00,
2013-04-04 09:04:00,39.4,35.5,30.13,West,270,0.0,1.9,86,0.16,,,0.23,WUHU21623XXSP,2013-04-04 13:04:00,
2013-04-04 09:09:00,39.2,35.6,30.12,NNE,22,0.0,0.0,87,0.16,,,0.23,WUHU21623XXSP,2013-04-04 13:09:00,
2013-04-04 09:14:00,39.4,35.8,30.12,NNE,22,0.0,0.0,87,0.18,,,0.25,WUHU21623XXSP,2013-04-04 13:14:00,
2013-04-04 09:19:00,39.4,35.8,30.12,NNE,22,0.0,0.0,87,0.18,,,0.25,WUHU21623XXSP,2013-04-04 13:19:00,
2013-04-04 09:24:00,39.4,35.8,30.12,East,90,0.0,0.0,87,0.21,,,0.27,WUHU21623XXSP,2013-04-04 13:24:00,
2013-04-04 09:29:00,39.0,35.5,30.12,NNE,22,0.0,0.0,87,0.21,,,0.29,WUHU21623XXSP,2013-04-04 13:29:00,
2013-04-04 09:34:00,39.4,35.8,30.12,NNE,22,0.0,0.0,87,0.21,,,0.29,WUHU21623XXSP,2013-04-04 13:34:00,
2013-04-04 09:39:00,39.6,36.0,30.13,North,0,0.0,0.0,87,0.17,,,0.29,WUHU21623XXSP,2013-04-04 13:39:00,
2013-04-04 09:44:00,39.7,36.2,30.13,East,90,0.0,0.0,87,0.15,,,0.29,WUHU21623XXSP,2013-04-04 13:44:00,
2013-04-04 09:49:00,39.6,36.0,30.13,East,90,0.0,0.0,87,0.15,,,0.31,WUHU21623XXSP,2013-04-04 13:49:00,
2013-04-04 09:54:00,39.4,35.8,30.13,NNE,22,0.0,0.0,87,0.13,,,0.31,WUHU21623XXSP,2013-04-04 13:54:00,
2013-04-04 09:59:00,39.4,35.8,30.14,NNE,22,0.0,0.0,87,0.11,,,0.31,WUHU21623XXSP,2013-04-04 13:59:00,
2013-04-04 10:05:00,39.4,35.8,30.14,North,0,0.0,0.0,87,0.09,,,0.31,WUHU21623XXSP,2013-04-04 14:05:00,
2013-04-04 10:10:00,39.4,35.8,30.13,East,90,0.0,0.0,87,0.09,,,0.31,WUHU21623XXSP,2013-04-04 14:10:00,
2013-04-04 10:15:00,39.6,36.0,30.14,East,90,0.0,0.0,87,0.09,,,0.33,WUHU21623XXSP,2013-04-04 14:15:00,
2013-04-04 10:20:00,39.7,36.2,30.14,South,180,0.0,0.0,87,0.06,,,0.33,WUHU21623XXSP,2013-04-04 14:20:00,
2013-04-04 10:25:00,39.7,36.2,30.14,South,180,0.0,0.0,87,0.06,,,0.33,WUHU21623XXSP,2013-04-04 14:25:00,
2013-04-04 10:30:00,39.7,36.2,30.14,South,180,0.0,0.0,87,0.06,,,0.36,WUHU21623XXSP,2013-04-04 14:30:00,
2013-04-04 10:35:00,39.9,36.3,30.14,South,180,0.0,0.0,87,0.09,,,0.38,WUHU21623XXSP,2013-04-04 14:35:00,
2013-04-04 10:40:00,40.1,36.5,30.14,ESE,112,0.0,0.0,87,0.11,,,0.40,WUHU21623XXSP,2013-04-04 14:40:00,
2013-04-04 10:45:00,39.9,36.3,30.14,ESE,112,0.0,0.0,87,0.09,,,0.40,WUHU21623XXSP,2013-04-04 14:45:00,
2013-04-04 10:50:00,40.1,36.5,30.13,NNE,22,0.0,0.0,87,0.11,,,0.42,WUHU21623XXSP,2013-04-04 14:50:00,
2013-04-04 10:55:00,40.5,36.8,30.13,NNE,22,0.0,0.0,87,0.11,,,0.42,WUHU21623XXSP,2013-04-04 14:55:00,
2013-04-04 11:00:00,40.5,36.8,30.13,North,0,0.0,0.0,87,0.11,,,0.42,WUHU21623XXSP,2013-04-04 15:00:00,
2013-04-04 11:05:00,40.8,37.2,30.13,NNE,22,2.1,2.4,87,0.13,,,0.44,WUHU21623XXSP,2013-04-04 15:05:00,
2013-04-04 11:10:00,40.8,37.2,30.13,NNE,22,0.0,3.0,87,0.13,,,0.44,WUHU21623XXSP,2013-04-04 15:10:00,
2013-04-04 11:16:00,40.8,37.2,30.13,NNE,22,0.0,3.0,87,0.11,,,0.44,WUHU21623XXSP,2013-04-04 15:16:00,
2013-04-04 11:21:00,41.2,37.6,30.13,NNE,22,0.0,1.3,87,0.11,,,0.44,WUHU21623XXSP,2013-04-04 15:21:00,
2013-04-04 11:26:00,41.2,37.6,30.13,North,0,0.0,1.0,87,0.11,,,0.44,WUHU21623XXSP,2013-04-04 15:26:00,
2013-04-04 11:31:00,40.8,37.2,30.13,North,0,0.0,1.0,87,0.09,,,0.44,WUHU21623XXSP,2013-04-04 15:31:00,
2013-04-04 11:37:00,41.2,37.6,30.14,North,0,0.0,0.0,87,0.06,,,0.44,WUHU21623XXSP,2013-04-04 15:37:00,
2013-04-04 11:42:00,41.2,37.6,30.14,WNW,292,0.0,0.0,87,0.04,,,0.44,WUHU21623XXSP,2013-04-04 15:42:00,
2013-04-04 11:47:00,41.2,37.6,30.14,East,90,0.0,0.0,87,0.02,,,0.44,WUHU21623XXSP,2013-04-04 15:47:00,
2013-04-04 11:52:00,41.0,37.4,30.14,NNE,22,0.0,0.0,87,0.02,,,0.44,WUHU21623XXSP,2013-04-04 15:52:00,
2013-04-04 11:57:00,41.0,37.4,30.14,NNE,22,0.0,0.0,87,0.04,,,0.46,WUHU21623XXSP,2013-04-04 15:57:00,
2013-04-04 12:02:00,41.2,37.6,30.13,North,0,0.0,0.0,87,0.04,,,0.46,WUHU21623XXSP,2013-04-04 16:02:00,
2013-04-04 12:07:00,41.2,37.6,30.13,NNE,22,0.0,1.9,87,0.02,,,0.46,WUHU21623XXSP,2013-04-04 16:07:00,
2013-04-04 12:12:00,41.2,37.6,30.13,NNE,22,0.0,1.9,87,0.02,,,0.46,WUHU21623XXSP,2013-04-04 16:12:00,
2013-04-04 12:17:00,41.2,37.6,30.13,NNE,22,0.0,0.0,87,0.02,,,0.46,WUHU21623XXSP,2013-04-04 16:17:00,
2013-04-04 12:22:00,41.2,37.6,30.13,NNE,22,0.0,0.0,87,0.02,,,0.46,WUHU21623XXSP,2013-04-04 16:22:00,
2013-04-04 12:27:00,41.2,37.6,30.13,NNE,22,0.0,0.0,87,0.02,,,0.46,WUHU21623XXSP,2013-04-04 16:27:00,
2013-04-04 12:32:00,41.2,37.6,30.14,NNE,22,0.0,0.0,87,0.04,,,0.49,WUHU21623XXSP,2013-04-04 16:32:00,
2013-04-04 12:37:00,41.2,37.6,30.13,NNE,22,0.0,0.0,87,0.04,,,0.49,WUHU21623XXSP,2013-04-04 16:37:00,
2013-04-04 12:42:00,41.2,37.6,30.13,East,90,0.0,2.4,87,0.04,,,0.49,WUHU21623XXSP,2013-04-04 16:42:00,
2013-04-04 12:47:00,41.2,37.6,30.13,East,90,0.0,2.4,87,0.06,,,0.51,WUHU21623XXSP,2013-04-04 16:47:00,
2013-04-04 12:52:00,41.5,37.9,30.14,North,0,0.0,0.0,87,0.06,,,0.51,WUHU21623XXSP,2013-04-04 16:52:00,
2013-04-04 12:57:00,41.2,37.6,30.14,WNW,292,0.0,0.0,87,0.06,,,0.53,WUHU21623XXSP,2013-04-04 16:57:00,
2013-04-04 13:03:00,41.4,37.7,30.13,NNE,22,0.0,0.0,87,0.09,,,0.55,WUHU21623XXSP,2013-04-04 17:03:00,
2013-04-04 13:08:00,41.4,37.7,30.14,NNE,22,0.0,0.0,87,0.09,,,0.55,WUHU21623XXSP,2013-04-04 17:08:00,
2013-04-04 13:13:00,41.5,37.9,30.13,North,0,0.0,0.0,87,0.11,,,0.57,WUHU21623XXSP,2013-04-04 17:13:00,
2013-04-04 13:18:00,41.9,38.6,30.12,North,0,0.0,0.0,88,0.11,,,0.57,WUHU21623XXSP,2013-04-04 17:18:00,
2013-04-04 13:23:00,42.1,38.8,30.12,NNE,22,0.0,0.0,88,0.13,,,0.59,WUHU21623XXSP,2013-04-04 17:23:00,
2013-04-04 13:28:00,42.1,38.8,30.12,NNE,22,0.0,2.4,88,0.13,,,0.59,WUHU21623XXSP,2013-04-04 17:28:00,
2013-04-04 13:33:00,42.1,38.8,30.12,NNE,22,0.0,2.4,88,0.11,,,0.59,WUHU21623XXSP,2013-04-04 17:33:00,
2013-04-04 13:38:00,42.4,39.1,30.12,NNE,22,0.0,0.0,88,0.11,,,0.59,WUHU21623XXSP,2013-04-04 17:38:00,
2013-04-04 13:43:00,42.6,39.3,30.12,NNE,22,1.4,1.7,88,0.11,,,0.59,WUHU21623XXSP,2013-04-04 17:43:00,
2013-04-04 13:48:00,43.0,39.7,30.12,North,0,0.0,1.7,88,0.09,,,0.59,WUHU21623XXSP,2013-04-04 17:48:00,
2013-04-04 13:53:00,42.8,39.5,30.11,East,90,0.0,1.7,88,0.09,,,0.59,WUHU21623XXSP,2013-04-04 17:53:00,
2013-04-04 13:58:00,43.0,39.7,30.11,North,0,0.0,1.0,88,0.09,,,0.62,WUHU21623XXSP,2013-04-04 17:58:00,
2013-04-04 14:03:00,43.0,39.7,30.10,NNE,22,1.4,1.7,88,0.06,,,0.62,WUHU21623XXSP,2013-04-04 18:03:00,
2013-04-04 14:08:00,42.6,39.3,30.10,NNE,22,1.4,3.8,88,0.06,,,0.62,WUHU21623XXSP,2013-04-04 18:08:00,
2013-04-04 14:13:00,43.0,39.7,30.10,NNE,22,0.0,3.8,88,0.04,,,0.62,WUHU21623XXSP,2013-04-04 18:13:00,
2013-04-04 14:18:00,43.0,39.7,30.10,East,90,0.0,2.7,88,0.04,,,0.62,WUHU21623XXSP,2013-04-04 18:18:00,
2013-04-04 14:23:00,43.0,39.7,30.10,East,90,0.0,2.4,88,0.04,,,0.64,WUHU21623XXSP,2013-04-04 18:23:00,
2013-04-04 14:28:00,43.3,40.0,30.10,East,90,1.4,1.7,88,0.04,,,0.64,WUHU21623XXSP,2013-04-04 18:28:00,
2013-04-04 14:33:00,43.5,40.2,30.09,NNE,22,0.0,1.7,88,0.06,,,0.66,WUHU21623XXSP,2013-04-04 18:33:00,
2013-04-04 14:38:00,43.5,40.2,30.09,NNE,22,0.0,1.7,88,0.10,,,0.69,WUHU21623XXSP,2013-04-04 18:38:00,
2013-04-04 14:43:00,43.5,40.2,30.10,NNE,22,0.0,0.0,88,0.10,,,0.69,WUHU21623XXSP,2013-04-04 18:43:00,
2013-04-04 14:48:00,43.9,40.6,30.09,North,0,0.0,0.0,88,0.10,,,0.69,WUHU21623XXSP,2013-04-04 18:48:00,
2013-04-04 14:53:00,43.7,40.4,30.09,NNE,22,0.0,0.0,88,0.10,,,0.69,WUHU21623XXSP,2013-04-04 18:53:00,
2013-04-04 14:59:00,43.7,40.4,30.09,NNE,22,1.7,2.4,88,0.10,,,0.71,WUHU21623XXSP,2013-04-04 18:59:00,
2013-04-04 15:04:00,43.7,40.4,30.08,NNE,22,1.7,2.4,88,0.10,,,0.71,WUHU21623XXSP,2013-04-04 19:04:00,
2013-04-04 15:09:00,43.9,40.6,30.08,NNE,22,0.0,2.4,88,0.10,,,0.71,WUHU21623XXSP,2013-04-04 19:09:00,
2013-04-04 15:14:00,43.9,40.6,30.08,NNE,22,0.0,1.9,88,0.10,,,0.71,WUHU21623XXSP,2013-04-04 19:14:00,
2013-04-04 15:19:00,43.9,40.6,30.08,North,0,0.0,0.0,88,0.08,,,0.71,WUHU21623XXSP,2013-04-04 19:19:00,
2013-04-04 15:24:00,43.9,40.6,30.08,East,90,0.0,0.0,88,0.08,,,0.71,WUHU21623XXSP,2013-04-04 19:24:00,
2013-04-04 15:29:00,43.9,40.6,30.08,NNE,22,1.7,1.9,88,0.05,,,0.71,WUHU21623XXSP,2013-04-04 19:29:00,
2013-04-04 15:34:00,43.9,40.6,30.07,NNE,22,0.0,1.9,88,0.05,,,0.71,WUHU21623XXSP,2013-04-04 19:34:00,
2013-04-04 15:39:00,43.9,40.6,30.07,NNE,22,0.0,1.9,88,0.02,,,0.71,WUHU21623XXSP,2013-04-04 19:39:00,
2013-04-04 15:44:00,44.1,40.7,30.06,NNE,22,0.0,1.3,88,0.02,,,0.71,WUHU21623XXSP,2013-04-04 19:44:00,
2013-04-04 15:50:00,44.2,40.9,30.06,East,90,0.0,1.0,88,0.02,,,0.71,WUHU21623XXSP,2013-04-04 19:50:00,
2013-04-04 15:55:00,44.2,40.9,30.06,NNE,22,0.0,1.0,88,0.00,,,0.71,WUHU21623XXSP,2013-04-04 19:55:00,
2013-04-04 16:00:00,44.2,40.9,30.06,NNE,22,0.0,0.0,88,0.00,,,0.71,WUHU21623XXSP,2013-04-04 20:00:00,
2013-04-04 16:05:00,44.4,41.1,30.06,NNE,22,0.0,0.0,88,0.00,,,0.71,WUHU21623XXSP,2013-04-04 20:05:00,
2013-04-04 16:10:00,44.4,41.1,30.05,NNE,22,0.0,0.0,88,0.00,,,0.71,WUHU21623XXSP,2013-04-04 20:10:00,
2013-04-04 16:15:00,44.4,41.1,30.06,NNE,22,0.0,1.3,88,0.00,,,0.71,WUHU21623XXSP,2013-04-04 20:15:00,
2013-04-04 16:20:00,44.2,40.9,30.05,East,90,1.7,1.9,88,0.00,,,0.71,WUHU21623XXSP,2013-04-04 20:20:00,
2013-04-04 16:25:00,43.9,40.6,30.05,NNE,22,0.0,1.9,88,0.00,,,0.71,WUHU21623XXSP,2013-04-04 20:25:00,
2013-04-04 16:30:00,43.7,40.4,30.05,East,90,1.4,1.9,88,0.02,,,0.73,WUHU21623XXSP,2013-04-04 20:30:00,
2013-04-04 16:35:00,43.7,40.4,30.05,NNE,22,0.0,1.7,88,0.02,,,0.73,WUHU21623XXSP,2013-04-04 20:35:00,
2013-04-04 16:40:00,43.9,40.6,30.04,NNE,22,2.1,2.7,88,0.02,,,0.73,WUHU21623XXSP,2013-04-04 20:40:00,
2013-04-04 16:45:00,43.5,40.2,30.04,NNE,22,0.0,2.7,88,0.02,,,0.73,WUHU21623XXSP,2013-04-04 20:45:00,
2013-04-04 16:50:00,43.7,40.4,30.04,North,0,0.0,2.4,88,0.02,,,0.73,WUHU21623XXSP,2013-04-04 20:50:00,
2013-04-04 16:55:00,43.9,40.6,30.04,NNE,22,0.0,1.9,88,0.02,,,0.73,WUHU21623XXSP,2013-04-04 20:55:00,
2013-04-04 17:00:00,43.9,40.6,30.04,NNE,22,0.0,1.9,88,0.02,,,0.73,WUHU21623XXSP,2013-04-04 21:00:00,
2013-04-04 17:05:00,43.9,40.6,30.04,NNE,22,0.0,0.0,88,0.02,,,0.73,WUHU21623XXSP,2013-04-04 21:05:00,
2013-04-04 17:10:00,43.7,40.4,30.04,NNE,22,0.0,0.0,88,0.02,,,0.73,WUHU21623XXSP,2013-04-04 21:10:00,
2013-04-04 17:15:00,43.5,40.2,30.04,NNE,22,1.4,4.4,88,0.02,,,0.73,WUHU21623XXSP,2013-04-04 21:15:00,
2013-04-04 17:20:00,43.7,40.4,30.04,East,90,0.0,4.4,88,0.02,,,0.73,WUHU21623XXSP,2013-04-04 21:20:00,
2013-04-04 17:25:00,43.7,40.4,30.04,NNE,22,0.0,1.7,88,0.02,,,0.73,WUHU21623XXSP,2013-04-04 21:25:00,
2013-04-04 17:30:00,43.5,40.2,30.04,NNE,22,0.0,0.0,88,0.00,,,0.73,WUHU21623XXSP,2013-04-04 21:30:00,
2013-04-04 17:35:00,43.5,40.2,30.04,North,0,0.0,0.0,88,0.00,,,0.73,WUHU21623XXSP,2013-04-04 21:35:00,
2013-04-04 17:40:00,43.5,40.2,30.04,NNE,22,1.4,2.4,88,0.00,,,0.73,WUHU21623XXSP,2013-04-04 21:40:00,
2013-04-04 17:45:00,43.5,40.2,30.03,NNE,22,0.0,2.4,88,0.02,,,0.76,WUHU21623XXSP,2013-04-04 21:45:00,
2013-04-04 17:50:00,43.7,40.4,30.04,NNE,22,0.0,0.0,88,0.02,,,0.76,WUHU21623XXSP,2013-04-04 21:50:00,
2013-04-04 17:55:00,43.5,40.2,30.03,NNE,22,0.0,1.3,88,0.02,,,0.76,WUHU21623XXSP,2013-04-04 21:55:00,
2013-04-04 18:01:00,43.5,40.2,30.03,NNE,22,0.0,1.3,88,0.02,,,0.76,WUHU21623XXSP,2013-04-04 22:01:00,
2013-04-04 18:06:00,43.5,40.2,30.03,NNE,22,0.0,0.0,88,0.02,,,0.76,WUHU21623XXSP,2013-04-04 22:06:00,
2013-04-04 18:11:00,43.5,40.2,30.03,NNE,22,0.0,0.0,88,0.02,,,0.76,WUHU21623XXSP,2013-04-04 22:11:00,
2013-04-04 18:16:00,43.5,40.2,30.03,NNE,22,0.0,0.0,88,0.02,,,0.76,WUHU21623XXSP,2013-04-04 22:16:00,
2013-04-04 18:21:00,43.3,40.0,30.03,NNE,22,0.0,0.0,88,0.04,,,0.78,WUHU21623XXSP,2013-04-04 22:21:00,
2013-04-04 18:26:00,43.5,40.2,30.03,North,0,0.0,0.0,88,0.04,,,0.78,WUHU21623XXSP,2013-04-04 22:26:00,
2013-04-04 18:32:00,43.5,40.2,30.03,NNE,22,0.0,0.0,88,0.04,,,0.78,WUHU21623XXSP,2013-04-04 22:32:00,
2013-04-04 18:37:00,43.5,40.2,30.03,NNE,22,0.0,0.0,88,0.04,,,0.78,WUHU21623XXSP,2013-04-04 22:37:00,
2013-04-04 18:42:00,43.5,40.2,30.03,NNE,22,0.0,1.9,88,0.04,,,0.78,WUHU21623XXSP,2013-04-04 22:42:00,
2013-04-04 18:47:00,43.5,40.2,30.03,NNE,22,0.0,1.9,88,0.04,,,0.80,WUHU21623XXSP,2013-04-04 22:47:00,
2013-04-04 18:52:00,43.5,40.2,30.03,NNE,22,0.0,0.0,88,0.04,,,0.80,WUHU21623XXSP,2013-04-04 22:52:00,
2013-04-04 18:57:00,43.5,40.2,30.02,NNE,22,0.0,0.0,88,0.04,,,0.80,WUHU21623XXSP,2013-04-04 22:57:00,
2013-04-04 19:02:00,43.5,40.2,30.02,East,90,1.7,1.9,88,0.04,,,0.80,WUHU21623XXSP,2013-04-04 23:02:00,
2013-04-04 19:07:00,43.5,40.5,30.02,NNE,22,0.0,1.9,89,0.04,,,0.80,WUHU21623XXSP,2013-04-04 23:07:00,
2013-04-04 19:12:00,43.5,40.5,30.02,NNE,22,0.0,0.0,89,0.04,,,0.80,WUHU21623XXSP,2013-04-04 23:12:00,
2013-04-04 19:18:00,43.5,40.5,30.02,NNE,22,1.4,2.4,89,0.04,,,0.80,WUHU21623XXSP,2013-04-04 23:18:00,
2013-04-04 19:23:00,43.5,40.5,30.02,East,90,0.0,2.4,89,0.02,,,0.80,WUHU21623XXSP,2013-04-04 23:23:00,
2013-04-04 19:28:00,43.3,40.3,30.02,NNE,22,0.0,1.9,89,0.02,,,0.80,WUHU21623XXSP,2013-04-04 23:28:00,
2013-04-04 19:33:00,43.2,40.2,30.02,NNE,22,0.0,0.0,89,0.02,,,0.80,WUHU21623XXSP,2013-04-04 23:33:00,
2013-04-04 19:38:00,43.0,40.0,30.02,East,90,0.0,0.0,89,0.02,,,0.80,WUHU21623XXSP,2013-04-04 23:38:00,
2013-04-04 19:43:00,43.0,40.0,30.02,NNE,22,0.0,0.0,89,0.02,,,0.80,WUHU21623XXSP,2013-04-04 23:43:00,
2013-04-04 19:48:00,43.0,40.0,30.02,NNE,22,0.0,0.0,89,0.00,,,0.80,WUHU21623XXSP,2013-04-04 23:48:00,
2013-04-04 19:53:00,43.0,40.0,30.02,East,90,0.0,0.0,89,0.00,,,0.80,WUHU21623XXSP,2013-04-04 23:53:00,
2013-04-04 19:59:00,42.6,39.6,30.02,NNE,22,0.0,0.0,89,0.00,,,0.80,WUHU21623XXSP,2013-04-04 23:59:00,
2013-04-04 20:04:00,42.6,39.6,30.02,East,90,0.0,0.0,89,0.00,,,0.80,WUHU21623XXSP,2013-04-05 00:04:00,
2013-04-04 20:09:00,42.6,39.6,30.02,East,90,0.0,0.0,89,0.00,,,0.80,WUHU21623XXSP,2013-04-05 00:09:00,
2013-04-04 20:14:00,42.6,39.6,30.02,East,90,0.0,0.0,89,0.00,,,0.80,WUHU21623XXSP,2013-04-05 00:14:00,
2013-04-04 20:19:00,42.6,39.6,30.02,East,90,0.0,0.0,89,0.00,,,0.80,WUHU21623XXSP,2013-04-05 00:19:00,
2013-04-04 20:24:00,42.6,39.6,30.02,NNE,22,0.0,0.0,89,0.00,,,0.80,WUHU21623XXSP,2013-04-05 00:24:00,
2013-04-04 20:29:00,42.6,39.6,30.02,ESE,112,1.7,1.9,89,0.00,,,0.80,WUHU21623XXSP,2013-04-05 00:29:00,
2013-04-04 20:34:00,42.4,39.4,30.02,NNE,22,0.0,1.9,89,0.00,,,0.80,WUHU21623XXSP,2013-04-05 00:34:00,
2013-04-04 20:40:00,42.4,39.4,30.02,East,90,0.0,1.9,89,0.00,,,0.80,WUHU21623XXSP,2013-04-05 00:40:00,
2013-04-04 20:45:00,42.4,39.4,30.02,NNE,22,0.0,0.0,89,0.00,,,0.80,WUHU21623XXSP,2013-04-05 00:45:00,
2013-04-04 20:50:00,42.4,39.4,30.02,North,0,0.0,0.0,89,0.00,,,0.80,WUHU21623XXSP,2013-04-05 00:50:00,
2013-04-04 20:55:00,42.3,39.3,30.02,NNE,22,2.6,3.0,89,0.00,,,0.80,WUHU21623XXSP,2013-04-05 00:55:00,
2013-04-04 21:00:00,42.3,39.3,30.02,NNE,22,0.0,3.0,89,0.00,,,0.80,WUHU21623XXSP,2013-04-05 01:00:00,
2013-04-04 21:05:00,42.1,39.1,30.02,East,90,0.0,3.0,89,0.00,,,0.80,WUHU21623XXSP,2013-04-05 01:05:00,
2013-04-04 21:10:00,42.1,39.1,30.02,East,90,0.0,0.0,89,0.00,,,0.80,WUHU21623XXSP,2013-04-05 01:10:00,
2013-04-04 21:15:00,42.1,39.1,30.02,NNE,22,0.0,0.0,89,0.00,,,0.80,WUHU21623XXSP,2013-04-05 01:15:00,
2013-04-04 21:20:00,42.1,39.1,30.02,NNE,22,0.0,2.4,89,0.00,,,0.80,WUHU21623XXSP,2013-04-05 01:20:00,
2013-04-04 21:25:00,42.1,39.1,30.02,NNE,22,0.0,2.4,89,0.00,,,0.80,WUHU21623XXSP,2013-04-05 01:25:00,
2013-04-04 21:30:00,41.9,38.9,30.02,NNE,22,0.0,2.4,89,0.00,,,0.80,WUHU21623XXSP,2013-04-05 01:30:00,
2013-04-04 21:35:00,41.9,38.9,30.02,East,90,0.0,2.4,89,0.00,,,0.80,WUHU21623XXSP,2013-04-05 01:35:00,
2013-04-04 21:41:00,41.9,38.9,30.02,NNE,22,0.0,0.0,89,0.00,,,0.80,WUHU21623XXSP,2013-04-05 01:41:00,
2013-04-04 21:46:00,41.9,38.9,30.02,East,90,0.0,0.0,89,0.00,,,0.80,WUHU21623XXSP,2013-04-05 01:46:00,
2013-04-04 21:51:00,41.9,38.9,30.03,NNE,22,0.0,0.0,89,0.00,,,0.80,WUHU21623XXSP,2013-04-05 01:51:00,
2013-04-04 21:56:00,41.7,38.7,30.03,NNE,22,0.0,0.0,89,0.00,,,0.80,WUHU21623XXSP,2013-04-05 01:56:00,
2013-04-04 22:01:00,41.7,38.7,30.03,East,90,0.0,0.0,89,0.00,,,0.80,WUHU21623XXSP,2013-04-05 02:01:00,
2013-04-04 22:07:00,41.7,38.7,30.03,East,90,0.0,0.0,89,0.00,,,0.80,WUHU21623XXSP,2013-04-05 02:07:00,
2013-04-04 22:12:00,41.7,38.7,30.03,NNE,22,0.0,0.0,89,0.00,,,0.80,WUHU21623XXSP,2013-04-05 02:12:00,
2013-04-04 22:17:00,41.7,38.7,30.03,East,90,0.0,0.0,89,0.00,,,0.80,WUHU21623XXSP,2013-04-05 02:17:00,
2013-04-04 22:22:00,41.7,38.7,30.03,NNE,22,0.0,0.0,89,0.00,,,0.80,WUHU21623XXSP,2013-04-05 02:22:00,
2013-04-04 22:27:00,41.7,38.7,30.03,NNE,22,0.0,0.0,89,0.00,,,0.80,WUHU21623XXSP,2013-04-05 02:27:00,
2013-04-04 22:32:00,41.7,38.7,30.03,East,90,0.0,0.0,89,0.00,,,0.80,WUHU21623XXSP,2013-04-05 02:32:00,
2013-04-04 22:37:00,41.7,38.7,30.02,East,90,0.0,0.0,89,0.00,,,0.80,WUHU21623XXSP,2013-04-05 02:37:00,
2013-04-04 22:42:00,41.5,38.5,30.02,ESE,112,0.0,0.0,89,0.00,,,0.80,WUHU21623XXSP,2013-04-05 02:42:00,
2013-04-04 22:47:00,41.7,38.7,30.03,ESE,112,0.0,0.0,89,0.00,,,0.80,WUHU21623XXSP,2013-04-05 02:47:00,
2013-04-04 22:53:00,41.7,38.7,30.03,East,90,0.0,0.0,89,0.00,,,0.80,WUHU21623XXSP,2013-04-05 02:53:00,
2013-04-04 22:58:00,41.5,38.5,30.03,East,90,0.0,0.0,89,0.00,,,0.80,WUHU21623XXSP,2013-04-05 02:58:00,
2013-04-04 23:03:00,41.7,38.7,30.02,NNE,22,0.0,0.0,89,0.00,,,0.80,WUHU21623XXSP,2013-04-05 03:03:00,
2013-04-04 23:08:00,41.7,38.7,30.02,East,90,0.0,0.0,89,0.00,,,0.80,WUHU21623XXSP,2013-04-05 03:08:00,
2013-04-04 23:13:00,41.5,38.5,30.02,East,90,0.0,0.0,89,0.00,,,0.80,WUHU21623XXSP,2013-04-05 03:13:00,
2013-04-04 23:18:00,41.7,38.7,30.02,ESE,112,0.0,0.0,89,0.00,,,0.80,WUHU21623XXSP,2013-04-05 03:18:00,
2013-04-04 23:23:00,41.7,38.7,30.02,ESE,112,0.0,0.0,89,0.00,,,0.80,WUHU21623XXSP,2013-04-05 03:23:00,
2013-04-04 23:28:00,41.7,38.7,30.02,East,90,0.0,0.0,89,0.00,,,0.80,WUHU21623XXSP,2013-04-05 03:28:00,
2013-04-04 23:33:00,41.7,38.7,30.02,NNE,22,0.0,0.0,89,0.00,,,0.80,WUHU21623XXSP,2013-04-05 03:33:00,
2013-04-04 23:38:00,41.7,38.7,30.02,NNE,22,0.0,0.0,89,0.00,,,0.80,WUHU21623XXSP,2013-04-05 03:38:00,
2013-04-04 23:43:00,41.7,38.7,30.01,East,90,0.0,0.0,89,0.00,,,0.80,WUHU21623XXSP,2013-04-05 03:43:00,
2013-04-04 23:49:00,41.7,38.7,30.01,ESE,112,0.0,0.0,89,0.00,,,0.80,WUHU21623XXSP,2013-04-05 03:49:00,
2013-04-04 23:54:00,41.7,38.7,30.01,ESE,112,0.0,0.0,89,0.00,,,0.80,WUHU21623XXSP,2013-04-05 03:54:00,
2013-04-04 23:59:00,41.7,38.7,30.01,ESE,112,0.0,0.0,89,0.00,,,0.80,WUHU21623XXSP,2013-04-05 03:59:00,